[[{"header":{"parameterUnit":"m.s-1","parameterCategory":1,"la1":30.2991,"la2":30.254,"lo1":-89.0895,"lo2":-89.0444,"dy":0.0017,"dx":0.0017,"nx":28,"ny":28,"refTime":"2023-10-24T09:00:00:Z","depth":0,"parameterNumber":2,"parameterNumberName":"U-component_of_WINDS"},"data":[0,0,0,0,0,0,0,0,0,0,0,0,0,0,0,0,0,0,0,0,0,0,0,0,0,0,0,0,0,0,0,0,0,0,0,0,0,0,0,0,0,0,0,0,0,0,0,0,0,0,0,0,0,0,0,0,0,0,-7.1804,-7.1805,0,-7.1847,-7.1847,-7.1848,-7.1781,-7.1778,-7.1776,-7.1774,-7.1814,-7.1817,-7.182,0,0,0,0,0,0,0,0,0,0,0,0,0,-7.1663,-7.1666,-7.1804,-7.1805,-7.1805,-7.1847,-7.1847,-7.1848,-7.1781,-7.1778,-7.1775,-7.1773,-7.1813,-7.1817,-7.1821,0,0,0,0,0,0,0,0,0,0,0,0,0,-7.1717,-7.1667,-7.1804,-7.1777,-7.1775,-7.1847,-7.1847,-7.1848,-7.1782,-7.1778,-7.1775,-7.1771,-7.1812,-7.1816,-7.1821,-7.192,0,0,-7.1836,-7.1838,0,0,0,0,0,0,0,0,-7.1714,-7.1722,-7.178,-7.1779,-7.1777,-7.1805,-7.1812,-7.1872,-7.1782,-7.1779,-7.1774,-7.177,-7.1814,-7.1818,-7.1833,-7.1922,-7.1924,-7.1836,-7.1839,-7.1841,-7.1843,0,0,0,0,0,0,0,-7.171,-7.172,-7.1821,-7.1781,-7.1779,-7.1762,-7.1766,-7.1823,-7.1815,-7.1779,-7.1774,-7.178,-7.1812,-7.1829,-7.1834,-7.1924,-7.1836,-7.184,-7.1843,-7.1845,-7.2098,-7.2102,0,0,0,0,0,0,-7.171,-7.1717,-7.1819,-7.1822,-7.1736,-7.1768,-7.1772,-7.1799,-7.1814,-7.1813,-7.1783,-7.1777,-7.1822,-7.1828,-7.1835,-7.1952,-7.1841,-7.1846,-7.1849,-7.2094,-7.2099,-7.2103,0,0,0,0,0,0,-7.1708,-7.172,-7.1818,-7.1769,-7.178,-7.1774,-7.1805,-7.1802,-7.1819,-7.1818,-7.1815,-7.1802,-7.182,-7.1828,-7.19,-7.1952,-7.1848,-7.1852,-7.209,-7.2096,-7.2101,-7.2186,0,0,0,0,0,0,-7.1704,-7.1719,-7.1757,-7.177,-7.1783,-7.1882,-7.1808,-7.1805,-7.1828,-7.182,-7.1835,-7.1834,-7.1818,-7.1893,-7.1905,-7.1957,-7.1856,-7.2085,-7.2093,-7.2099,-7.2179,-7.2194,-7.2207,0,0,0,0,0,-7.1699,-7.1778,-7.1759,-7.1772,-7.183,-7.1886,-7.1893,-7.1873,-7.1832,-7.187,-7.187,-7.1833,-7.1946,-7.1901,-7.1914,-7.1968,-7.2082,-7.209,-7.2099,-7.2172,-7.2191,-7.2207,0,0,0,0,0,0,-7.1768,-7.1779,-7.1758,-7.1844,-7.1865,-7.1874,-7.192,-7.1894,-7.1926,-7.1917,-7.1891,-7.1895,-7.1972,-7.1978,-7.1928,-7.2066,-7.2007,-7.2018,-7.2058,-7.2076,-7.209,-7.2086,-7.186,0,0,0,0,0,-7.1795,-7.184,-7.1846,-7.1922,-7.1933,-7.1926,-7.1949,-7.1934,-7.1953,-7.1961,-7.1966,-7.1986,-7.2026,-7.2052,-7.2088,-7.2181,-7.2183,-7.2225,-7.2239,-7.2251,-7.226,-7.231,-7.2328,-7.2131,-7.2131,-7.2131,0,0,-7.1847,-7.1859,-7.1888,-7.1936,-7.195,-7.1997,-7.1933,-7.1985,-7.2019,-7.1968,-7.2036,-7.2042,-7.2062,-7.2145,-7.2182,-7.2152,-7.2316,-7.2262,-7.2272,-7.2274,-7.2321,-7.2339,-7.2356,-7.2137,-7.2136,-7.2135,0,0,-7.1966,-7.198,-7.2044,-7.2061,-7.2085,-7.208,-7.2096,-7.2111,-7.2112,-7.2181,-7.2144,-7.2185,-7.2255,-7.2271,-7.2288,-7.242,-7.2387,-7.2433,-7.2506,-7.2555,-7.257,-7.2584,-7.2629,-7.2646,-7.2443,-7.2443,-7.2443,0,-7.2027,-7.2097,-7.208,-7.2136,-7.2158,-7.2118,-7.2182,-7.2199,-7.2233,-7.2249,-7.2216,-7.2304,-7.2315,-7.2401,-7.2434,-7.245,-7.2467,-7.2428,-7.257,-7.2583,-7.2596,-7.2639,-7.2656,-7.2448,-7.2448,-7.2447,-7.2447,0,-7.2172,-7.2222,-7.2271,-7.2306,-7.2335,-7.2395,-7.2386,-7.2417,-7.2401,-7.24,-7.2471,-7.2484,-7.2523,-7.2544,-7.2527,-7.2628,-7.2609,-7.2574,-7.2513,-7.262,-7.266,-7.2676,-7.2456,-7.2454,-7.2452,-7.2451,0,0,-7.2329,-7.2359,-7.2377,-7.2394,-7.2419,-7.2457,-7.2517,-7.2557,-7.2583,-7.261,-7.2657,-7.272,-7.2688,-7.2709,-7.2694,-7.2738,-7.284,-7.2697,-7.2697,-7.2721,-7.2952,-7.2975,-7.2995,-7.2821,-7.2825,-7.2827,-7.2949,0,-7.2447,-7.2549,-7.2538,-7.2635,-7.2681,-7.2647,-7.2698,-7.272,-7.2722,-7.2761,-7.2763,-7.2806,-7.2763,-7.2775,-7.2817,-7.2819,-7.2886,-7.281,-7.2864,-7.2866,-7.2856,-7.3016,-7.304,-7.3155,-7.2965,-7.2968,-7.297,0,-7.2595,-7.2629,-7.2732,-7.2753,-7.2772,-7.2818,-7.2855,-7.2894,-7.2918,-7.2917,-7.2942,-7.2922,-7.2981,-7.2924,-7.3005,-7.2954,-7.2977,-7.2982,-7.2986,-7.2986,-7.2921,-7.3018,-7.3191,-7.3207,-7.2994,-7.2992,-7.2991,0,-7.2697,-7.277,-7.284,-7.2856,-7.2883,-7.2917,-7.2929,-7.295,-7.2976,-7.3009,-7.3026,-7.3065,-7.3086,-7.3117,-7.3107,-7.3067,-7.3191,-7.3133,-7.319,-7.319,-7.3213,-7.3211,-7.3389,-7.3234,-7.3234,-7.3234,-7.3233,0,-7.2827,-7.289,-7.2887,-7.293,-7.3001,-7.2989,-7.3059,-7.3068,-7.3088,-7.3132,-7.3106,-7.3147,-7.3134,-7.3176,-7.317,-7.3238,-7.3248,-7.3248,-7.3244,-7.3248,-7.3247,-7.3258,-7.3249,-7.3238,-7.3237,-7.3236,-7.3236,0,-7.295,-7.2951,-7.3026,-7.3047,-7.3054,-7.3105,-7.3123,-7.3164,-7.3166,-7.3222,-7.3235,-7.3238,-7.3286,-7.3282,-7.3335,-7.3331,-7.3414,-7.3403,-7.3406,-7.3402,-7.3459,-7.3453,-7.3647,-7.3671,-7.3504,-7.3506,-7.3507,0,-7.303,-7.3079,-7.3107,-7.3136,-7.3151,-7.3198,-7.3225,-7.3216,-7.3246,-7.328,-7.3316,-7.3363,-7.3398,-7.3477,-7.3483,-7.3524,-7.3512,-7.3578,-7.3518,-7.352,-7.351,-7.3506,-7.351,-7.3588,-7.359,-7.3591,-7.3593,0,-7.3173,-7.3172,-7.3212,-7.3255,-7.3289,-7.3321,-7.3351,-7.3376,-7.337,-7.3405,-7.3455,-7.3483,-7.354,-7.3585,-7.3625,-7.3638,-7.3614,-7.3613,-7.3628,-7.3629,-7.3628,-7.3627,-7.3435,-7.3607,-7.3605,-7.3604,-7.3603,-7.3603,-7.3275,-7.3317,-7.3344,-7.3391,-7.3413,-7.3443,-7.3482,-7.3492,-7.3534,-7.3579,-7.3573,-7.3629,-7.3655,-7.3706,-7.3724,-7.3767,-7.3743,-7.3765,-7.377,-7.3774,-7.378,-7.3625,-7.3774,-7.3774,-7.3774,-7.3773,-7.3773,0,-7.3413,-7.343,-7.3474,-7.3518,-7.3556,-7.3535,-7.3567,-7.3599,-7.3649,-7.3677,-7.3714,-7.3772,-7.3818,-7.383,-7.3874,-7.3906,-7.3897,-7.3918,-7.3913,-7.3916,-7.38,-7.3781,-7.3925,-7.3925,-7.3925,-7.3925,-7.3925,-7.3925,-7.3489,-7.3559,-7.3563,-7.3644,-7.3661,-7.3716,-7.3737,-7.3764,-7.3786,-7.3852,-7.3891,-7.39,-7.3921,-7.3967,-7.4009,-7.4011,-7.4027,-7.4052,-7.405,-7.394,-7.3924,-7.391,-7.3892,-7.4057,-7.4057,-7.4162,-7.4163,-7.4164]},{"header":{"parameterUnit":"m.s-1","parameterCategory":1,"la1":30.2991,"la2":30.254,"lo1":-89.0895,"lo2":-89.0444,"dy":0.0017,"dx":0.0017,"nx":28,"ny":28,"refTime":"2023-10-24T09:00:00:Z","depth":0,"parameterNumber":3,"parameterNumberName":"V-component_of_WINDS"},"data":[0,0,0,0,0,0,0,0,0,0,0,0,0,0,0,0,0,0,0,0,0,0,0,0,0,0,0,0,0,0,0,0,0,0,0,0,0,0,0,0,0,0,0,0,0,0,0,0,0,0,0,0,0,0,0,0,0,0,2.388,2.3881,0,2.3943,2.3944,2.3945,2.4007,2.4008,2.4009,2.401,2.4067,2.4067,2.4068,0,0,0,0,0,0,0,0,0,0,0,0,0,2.3809,2.381,2.388,2.3881,2.3882,2.3943,2.3944,2.3945,2.4007,2.4008,2.4009,2.401,2.4066,2.4067,2.4068,0,0,0,0,0,0,0,0,0,0,0,0,0,2.3852,2.381,2.388,2.392,2.3925,2.3943,2.3944,2.3945,2.4007,2.4008,2.401,2.4011,2.4066,2.4067,2.4068,2.4049,0,0,2.4071,2.4072,0,0,0,0,0,0,0,0,2.385,2.3855,2.3914,2.3918,2.3923,2.3969,2.394,2.398,2.4007,2.3975,2.401,2.4011,2.4033,2.4036,2.4045,2.4052,2.4054,2.4071,2.4072,2.4073,2.4073,0,0,0,0,0,0,0,2.3847,2.3853,2.3905,2.3914,2.392,2.3934,2.3942,2.3948,2.3996,2.3978,2.3983,2.399,2.4035,2.4044,2.4047,2.4055,2.4071,2.4072,2.4073,2.4073,2.4052,2.4051,0,0,0,0,0,0,2.3839,2.385,2.3903,2.3907,2.3889,2.3934,2.3943,2.3953,2.3996,2.4004,2.3989,2.3993,2.4042,2.4046,2.4049,2.4032,2.4073,2.4074,2.4074,2.4054,2.4052,2.4051,0,0,0,0,0,0,2.3837,2.3843,2.39,2.388,2.3888,2.3934,2.3945,2.3953,2.3962,2.4004,2.4012,2.399,2.4043,2.4048,2.405,2.4035,2.4074,2.4075,2.4055,2.4053,2.4051,2.3997,0,0,0,0,0,0,2.3835,2.3842,2.3836,2.3879,2.3889,2.3901,2.3944,2.3953,2.3965,2.397,2.4007,2.4014,2.4044,2.4048,2.4051,2.4037,2.4076,2.4057,2.4054,2.4052,2.4,2.3993,2.3987,0,0,0,0,0,2.3832,2.3815,2.3835,2.3841,2.3883,2.39,2.3906,2.3943,2.3963,2.3957,2.3985,2.4013,2.4036,2.4048,2.4052,2.4038,2.4058,2.4055,2.4052,2.4003,2.3995,2.3988,0,0,0,0,0,0,2.3765,2.3821,2.3844,2.3842,2.3866,2.3911,2.3904,2.3932,2.3949,2.3954,2.3997,2.4005,2.4002,2.402,2.4032,2.4023,2.4051,2.4049,2.4012,2.4005,2.3998,2.3994,2.4077,0,0,0,0,0,2.3751,2.3762,2.381,2.3803,2.3815,2.3857,2.3866,2.3893,2.3919,2.3929,2.3957,2.3979,2.3992,2.3999,2.4013,2.4003,2.4013,2.3996,2.3989,2.3984,2.3982,2.3981,2.3974,2.4042,2.4042,2.4042,0,0,2.3719,2.3752,2.3756,2.379,2.3813,2.3823,2.3865,2.3873,2.3881,2.3929,2.3935,2.3956,2.3984,2.3981,2.3981,2.3996,2.3965,2.398,2.3976,2.3977,2.3977,2.3971,2.3965,2.404,2.404,2.4041,0,0,2.3669,2.3694,2.3693,2.3716,2.3751,2.378,2.3779,2.3821,2.3838,2.3845,2.3883,2.3891,2.3912,2.3931,2.3944,2.3905,2.3932,2.3908,2.3875,2.3873,2.3868,2.3864,2.3852,2.3847,2.3905,2.3905,2.3905,0,2.3626,2.3645,2.3688,2.3696,2.371,2.3759,2.3758,2.3777,2.3812,2.3821,2.3838,2.3867,2.3889,2.3893,2.3884,2.3892,2.3893,2.3904,2.3866,2.3862,2.3858,2.3847,2.3843,2.3902,2.3903,2.3903,2.3903,0,2.3591,2.3603,2.3598,2.3636,2.365,2.3652,2.3696,2.3704,2.3731,2.3758,2.3766,2.3794,2.3816,2.3819,2.3843,2.3827,2.3836,2.3858,2.3887,2.3848,2.3839,2.3835,2.3898,2.3899,2.39,2.3901,0,0,2.3498,2.3564,2.3561,2.3581,2.3624,2.3634,2.3639,2.3665,2.3672,2.3695,2.3701,2.372,2.3743,2.3757,2.3783,2.3782,2.3753,2.3806,2.3807,2.3796,2.3739,2.3723,2.3717,2.3771,2.377,2.377,2.3738,0,2.3456,2.3472,2.3513,2.3516,2.3529,2.3577,2.3582,2.3608,2.3635,2.3648,2.3676,2.369,2.3717,2.3727,2.3727,2.3756,2.3742,2.3759,2.3776,2.3777,2.377,2.3712,2.3694,2.3663,2.3734,2.3733,2.3733,0,2.3409,2.3435,2.344,2.3487,2.3494,2.3498,2.3526,2.3539,2.357,2.3589,2.3607,2.3639,2.3647,2.3673,2.3685,2.3696,2.3705,2.3721,2.372,2.3724,2.3753,2.3716,2.3653,2.3649,2.3727,2.3728,2.3728,0,2.3345,2.3379,2.3388,2.3403,2.3457,2.3459,2.3481,2.3514,2.3528,2.3551,2.3561,2.3583,2.3596,2.3612,2.3649,2.3665,2.3658,2.3686,2.3674,2.3673,2.367,2.367,2.361,2.3674,2.3674,2.3674,2.3674,0,2.3295,2.3296,2.3361,2.3366,2.337,2.3417,2.3418,2.3444,2.3474,2.3485,2.3526,2.3534,2.3582,2.3596,2.3624,2.3631,2.3635,2.3651,2.3658,2.3648,2.3646,2.3655,2.3659,2.3673,2.3673,2.3673,2.3674,0,2.3223,2.3266,2.3279,2.3331,2.3344,2.3344,2.3388,2.3394,2.3424,2.3437,2.3443,2.3489,2.3508,2.3546,2.3574,2.3593,2.3594,2.3606,2.3584,2.359,2.3576,2.3577,2.352,2.3516,2.3581,2.358,2.3579,0,2.3189,2.3192,2.3245,2.3258,2.3279,2.3297,2.3313,2.3359,2.3373,2.3411,2.3413,2.3436,2.3457,2.3485,2.352,2.3542,2.3556,2.3535,2.356,2.355,2.3559,2.3559,2.356,2.3529,2.3529,2.3528,2.3527,0,2.3125,2.3147,2.3169,2.32,2.3219,2.3244,2.3271,2.3278,2.333,2.3344,2.3366,2.3383,2.3414,2.3436,2.3465,2.3485,2.3515,2.3519,2.3518,2.3508,2.3496,2.3505,2.3571,2.352,2.3521,2.3522,2.3522,2.3522,2.3072,2.3079,2.3119,2.3143,2.317,2.3195,2.3206,2.3239,2.3259,2.329,2.3316,2.3336,2.3369,2.3411,2.343,2.3446,2.346,2.3457,2.3457,2.3456,2.3453,2.3493,2.3451,2.3451,2.3451,2.3451,2.3452,0,2.3012,2.3042,2.3064,2.3103,2.3123,2.3152,2.3185,2.3198,2.3217,2.3247,2.3268,2.3294,2.3317,2.3355,2.3381,2.3386,2.3401,2.3392,2.3392,2.3397,2.3437,2.3437,2.338,2.338,2.338,2.338,2.338,2.338,2.2984,2.2998,2.3025,2.3053,2.3081,2.3105,2.3121,2.3145,2.317,2.3198,2.3219,2.3245,2.3278,2.3307,2.333,2.334,2.3348,2.3335,2.335,2.3387,2.3394,2.34,2.34,2.3336,2.3336,2.3308,2.3308,2.3308]}]]